Location: Cedar Ridge
(38.0658°N, 120.2769°W)
Time: 22:48:25
(UTC+00:00)

Cosmos 468 Rocket - Pass Details

Date: 10 September 2024
Orbit: 741 x 776 km, 74.0° (Epoch: 12 October)

Event Time Altitude Azimuth Distance (km) Brightness Sun altitude
Rises 12:17:52 0° 341° (NNW) 3,220 7.3 -16.4°
Reaches altitude 10° 12:20:14 10° 342° (NNW) 2,297 6.5 -15.9°
Maximum altitude 12:25:28 89° 73° (ENE) 771 4.0 -15.0°
Drops below altitude 10° 12:30:42 10° 163° (SSE) 2,304 6.5 -14.0°
Sets 12:33:05 0° 163° (SSE) 3,231 7.2 -13.5°
